RH
28 26 23 22 22 22 21 21 23 24 24 24 23 23 23 23 24 25 26 27 28 29 30 29 27 25 23 22 21 21 21 21 21 21 23 22 20 19 18 18 17 16 15 15 15 15 15 16 16 16 17 17 17 17 17 19 22 26 37 54 70 76 76 74 72 75 79 80 82 83 83 80 77 81 88 92 89 88 89 89 88 86 85 86 83 83 85 85
32 29 27 24 23 23 23 22 23 24 26 27 25 25 24 24 24 25 26 26 27 28 29 30 29 28 27 25 24 22 21 21 21 22 24 23 20 20 20 20 19 18 16 16 16 16 16 16 16 16 16 17 17 17 17 16 18 21 28 44 58 61 62 63 65 70 73 75 78 80 81 79 78 82 87 92 91 88 87 84 85 82 79 81 79 80 84 84
40 36 32 29 26 25 25 25 24 24 26 29 30 28 26 25 25 25 25 26 27 28 29 29 29 30 30 30 28 26 24 22 21 23 24 22 20 20 21 21 21 20 19 18 18 17 17 17 16 17 17 17 17 17 18 17 17 18 23 37 44 43 45 49 55 63 67 70 75 77 77 78 81 83 85 93 88 81 81 77 78 77 73 76 76 74 79 84
47 44 40 35 32 29 27 27 26 26 25 27 31 33 30 27 26 26 25 26 26 27 28 29 29 29 30 31 32 31 29 26 25 26 23 21 20 21 22 22 22 21 20 19 19 19 18 17 17 17 17 17 18 17 18 18 18 18 22 30 30 28 31 36 43 52 57 64 70 72 74 77 81 82 84 93 84 73 76 72 71 72 69 74 76 73 76 82
52 50 48 43 39 35 31 29 28 29 27 26 28 33 35 31 28 27 26 26 26 26 27 28 29 30 31 30 31 33 32 31 32 31 26 21 20 21 22 22 21 21 21 21 21 21 19 18 18 17 17 17 17 18 18 18 19 20 23 25 22 20 23 26 31 38 44 51 59 65 70 74 78 80 82 86 80 74 73 67 66 69 72 76 78 76 76 76
58 55 52 50 47 43 39 34 31 30 30 29 27 29 35 36 32 29 27 27 26 26 26 26 27 29 31 31 31 32 32 33 35 37 33 27 24 23 22 22 22 21 21 21 22 22 21 20 19 18 18 18 17 18 18 18 18 20 23 23 20 19 19 20 22 27 31 38 46 54 62 67 72 75 75 76 75 72 68 65 66 69 72 76 77 78 78 77
64 62 58 55 52 49 46 43 38 33 31 32 30 28 30 34 37 33 30 28 27 26 26 26 26 26 29 30 31 32 33 35 37 39 38 34 30 27 25 23 22 21 21 21 21 21 22 21 21 20 19 19 18 18 18 18 18 20 23 22 20 19 18 18 18 20 23 27 34 43 51 57 63 66 66 68 69 66 63 64 66 67 70 72 75 78 80 79
69 68 66 61 57 53 51 48 46 43 38 34 33 32 29 30 34 37 35 31 29 27 26 27 26 26 26 27 29 30 33 37 38 39 37 33 31 31 29 26 23 22 21 21 21 20 21 21 22 22 22 21 20 20 18 18 18 19 22 22 20 20 19 18 18 19 20 22 27 34 43 50 54 56 56 57 59 60 61 62 64 66 67 70 73 75 77 78
71 73 73 70 64 59 55 51 49 49 48 42 37 34 32 31 30 34 38 37 33 29 29 28 27 27 26 26 27 28 33 34 34 35 33 29 28 31 32 31 28 25 22 21 20 20 20 21 22 23 23 23 21 21 19 18 19 20 22 22 20 20 19 18 18 19 19 19 22 27 35 42 44 47 49 49 52 55 55 57 62 65 66 65 65 67 71 73
71 73 76 76 72 66 61 56 52 49 51 51 47 40 35 34 31 31 34 38 39 35 31 29 29 28 27 28 25 32 40 31 27 30 31 30 28 32 35 35 35 32 28 24 21 21 21 21 21 21 22 22 22 22 21 21 21 22 23 22 20 20 19 18 18 18 19 20 21 25 31 35 35 39 42 42 45 48 47 50 58 64 65 60 57 59 63 68
69 70 74 78 78 73 67 62 57 52 49 51 52 49 43 37 34 33 32 33 38 40 37 32 32 30 31 30 29 47 52 30 24 28 28 31 31 33 35 38 39 38 36 31 27 24 23 21 20 20 20 21 22 23 23 23 23 24 24 23 21 20 19 18 19 18 19 20 22 27 32 32 29 30 32 32 35 41 41 44 50 55 60 58 54 56 58 62
65 67 72 76 79 77 72 67 63 56 50 48 50 52 51 45 39 35 34 32 33 37 40 39 35 32 33 32 40 63 57 29 24 27 27 29 30 32 33 36 39 40 40 38 36 31 27 23 20 20 20 21 21 21 23 23 24 24 24 23 21 20 20 19 19 19 20 21 23 29 33 33 29 27 28 27 29 33 34 37 41 46 54 57 53 52 54 58
63 65 70 74 77 77 75 71 66 61 54 48 47 49 52 51 47 41 37 35 33 32 36 40 40 36 33 36 53 66 48 28 26 28 32 32 30 31 30 33 37 38 39 39 39 37 32 27 22 21 21 20 20 20 21 22 23 23 23 23 22 21 21 21 21 20 21 21 23 28 33 34 32 29 28 26 26 26 26 28 34 39 46 51 50 48 50 55
64 67 70 74 75 75 75 72 69 64 57 49 44 45 49 51 50 48 42 37 35 34 33 35 40 41 36 40 56 58 40 29 29 33 40 39 36 34 29 29 32 35 38 38 37 36 34 30 26 23 22 21 20 19 20 20 21 22 23 24 23 23 23 24 24 23 23 22 24 26 29 33 31 28 26 24 24 25 23 24 30 32 34 41 44 45 48 53
66 70 74 75 74 73 73 72 69 64 58 51 43 41 45 50 51 50 47 42 37 36 35 33 35 40 44 50 53 47 37 32 36 45 47 45 44 41 35 29 28 31 35 38 37 34 31 29 27 26 25 23 21 20 19 19 20 21 22 23 24 23 23 24 24 24 25 24 25 25 27 29 27 25 23 22 23 24 24 24 29 29 27 32 38 41 44 48
68 75 79 78 74 71 70 70 68 64 57 48 41 38 39 46 52 52 49 46 42 38 36 36 35 35 45 61 55 39 37 39 46 52 49 50 52 48 41 34 29 28 29 33 36 34 30 26 26 28 27 24 22 21 20 19 19 20 21 22 23 23 23 23 23 24 24 24 25 25 27 28 26 24 22 21 21 22 23 24 27 29 27 28 33 35 36 39
70 79 82 80 74 69 68 67 63 59 52 43 36 34 35 40 48 53 51 48 45 41 37 37 39 35 39 55 55 40 38 42 46 46 47 53 53 49 44 36 32 29 26 28 29 31 30 27 28 29 29 28 25 23 21 20 22 22 22 22 22 22 23 22 22 22 22 23 23 25 27 28 28 25 22 22 21 21 21 21 24 29 29 29 30 30 31 34
71 80 83 79 73 67 64 62 57 50 44 37 31 30 32 36 43 51 53 50 47 44 41 38 40 41 37 42 50 48 40 37 39 38 44 52 49 47 45 38 34 31 27 26 25 27 29 31 33 31 31 30 29 28 26 27 27 25 24 23 22 22 22 22 22 22 21 22 22 23 24 26 26 25 24 23 21 21 20 19 22 28 30 28 26 27 30 34
74 80 84 80 71 64 59 54 48 40 34 30 28 27 29 34 40 47 53 54 50 46 42 39 38 43 41 36 43 50 44 35 36 39 45 55 53 49 48 41 36 34 31 28 27 27 27 31 33 32 33 34 36 37 37 35 31 27 25 24 23 22 22 22 21 20 21 21 21 22 22 23 23 24 24 22 22 22 20 20 23 27 28 26 25 26 29 34
79 82 84 80 69 60 54 47 39 31 27 24 24 25 27 32 38 46 54 57 53 46 42 39 38 42 44 39 36 43 45 37 35 40 48 58 60 56 54 48 41 38 35 33 33 31 27 27 28 33 40 43 43 42 43 42 37 32 28 25 24 22 23 23 22 21 21 21 21 22 22 22 22 22 22 21 21 22 20 23 26 28 28 27 25 24 26 31
84 84 84 79 67 57 49 39 31 25 22 21 22 23 27 33 39 47 57 59 53 47 43 40 39 42 44 43 37 36 42 41 35 36 44 54 58 56 55 52 45 41 41 41 39 35 30 26 26 32 41 48 47 43 44 44 41 37 32 30 27 26 27 24 22 21 21 22 22 22 22 21 22 22 21 19 19 20 21 25 28 28 29 29 27 25 25 26
87 85 83 77 65 55 45 33 25 21 20 20 21 24 29 36 42 52 63 64 55 47 45 41 41 43 41 42 40 33 37 44 39 34 38 47 52 54 56 56 51 45 45 46 44 40 35 31 29 29 35 47 51 49 48 46 42 37 35 35 34 34 34 29 25 23 23 23 24 24 23 22 22 22 20 19 18 18 20 24 26 27 29 30 28 26 25 23
86 84 80 71 61 53 41 29 21 18 19 20 22 26 32 41 50 60 69 68 56 47 47 43 42 44 39 38 41 35 34 41 43 38 35 41 48 53 56 57 56 51 45 45 46 45 42 40 38 33 32 39 49 57 59 53 45 40 40 42 43 42 40 36 31 27 26 27 26 24 22 22 22 21 20 19 18 18 19 21 24 26 28 29 28 27 26 25
83 80 75 65 58 50 37 25 19 18 19 21 25 30 36 46 57 63 65 63 53 45 49 46 42 42 36 34 39 38 34 35 41 41 35 36 44 51 54 55 57 52 45 45 47 48 48 50 47 40 35 36 45 58 62 58 54 51 49 49 50 48 46 43 37 32 30 29 29 26 23 22 21 22 22 21 19 18 18 19 21 25 27 28 28 29 32 33
77 75 68 59 53 45 32 22 18 18 20 23 28 33 40 50 58 60 57 58 53 47 50 47 41 38 32 31 37 40 37 33 37 42 38 35 39 48 53 55 55 50 46 45 45 47 51 56 53 45 40 36 38 48 52 57 64 63 60 60 59 54 50 46 40 36 34 35 36 32 28 26 25 25 24 22 21 18 18 19 21 25 26 28 29 31 38 43
70 67 60 53 48 39 28 21 19 19 21 26 32 37 45 51 56 59 56 58 57 50 49 46 39 34 30 32 37 40 39 36 36 41 42 36 35 43 50 53 53 51 49 46 44 46 50 57 56 50 48 41 37 37 38 45 56 64 74 80 74 65 57 48 42 40 39 41 42 38 33 31 29 28 25 22 21 19 19 20 22 24 26 27 29 31 38 44
61 57 51 45 41 33 25 21 20 21 25 30 36 42 46 48 53 57 53 54 55 49 46 44 38 33 32 33 34 36 39 39 36 37 42 39 34 39 47 50 54 54 52 46 42 43 47 52 52 50 50 48 43 39 37 37 40 57 82 94 90 82 71 57 48 44 42 43 43 41 39 35 32 29 27 25 23 22 22 23 23 24 26 27 28 31 35 37
50 46 42 37 34 29 24 21 22 25 29 33 38 43 44 46 53 56 53 52 51 46 44 42 37 34 33 33 33 35 37 38 35 34 39 41 35 36 44 50 55 59 56 48 43 44 47 48 51 53 52 50 50 52 52 44 41 58 77 86 95 98 86 69 57 50 46 43 41 43 45 41 35 31 28 27 26 25 26 27 26 26 28 29 30 33 34 34
37 35 33 30 28 26 23 23 26 29 34 37 40 43 43 48 56 56 53 51 46 43 42 39 37 36 34 33 34 34 34 35 35 33 36 39 35 33 40 49 56 61 57 49 47 48 47 47 50 53 50 53 62 68 65 55 55 65 66 69 87 102 94 72 55 50 48 46 43 45 49 48 42 34 29 28 28 29 30 29 29 30 31 32 34 37 37 37
25 25 24 23 23 24 24 26 30 34 39 41 41 41 43 51 56 54 52 49 44 43 42 40 39 37 34 34 34 32 32 33 35 34 35 38 36 31 36 46 52 57 57 51 49 50 49 49 49 48 47 54 64 68 65 63 73 76 66 64 76 91 92 67 46 43 44 45 49 50 51 53 50 41 32 29 29 30 32 32 32 33 34 35 37 38 38 37
17 18 19 20 22 24 26 29 34 40 44 44 41 41 46 53 55 54 55 50 44 44 44 42 40 37 35 34 32 31 30 31 32 34 35 38 38 33 33 41 46 49 52 51 51 54 54 53 52 51 52 54 56 57 57 63 78 82 74 69 69 76 77 57 39 36 33 40 53 56 55 56 56 49 39 32 30 31 35 37 36 37 37 37 38 38 37 36
14 16 17 19 22 25 28 32 37 44 47 45 43 45 50 56 56 57 58 52 45 46 46 43 39 36 34 32 32 32 31 30 31 33 34 37 40 37 34 39 46 48 50 52 55 57 57 57 59 60 58 57 55 55 55 57 65 69 67 64 62 64 61 47 37 33 31 41 51 54 59 61 58 54 46 36 32 34 38 39 39 40 40 39 39 39 39 40
13 15 17 20 22 25 29 34 39 44 47 47 48 50 55 60 59 61 62 53 47 47 46 41 36 33 31 30 30 31 31 30 30 32 35 36 39 39 35 38 46 50 53 58 62 62 62 60 60 61 60 60 60 60 58 58 59 61 61 55 54 59 58 49 43 40 40 46 50 52 60 66 63 58 51 42 37 37 39 39 39 41 43 47 49 45 44 46
12 13 16 19 22 25 29 34 38 42 46 50 53 57 63 65 63 66 65 55 48 49 46 40 35 32 28 27 27 29 31 31 31 32 35 37 39 40 37 35 43 49 52 57 61 63 64 61 60 63 63 64 65 64 65 68 68 71 75 71 65 69 69 61 58 59 59 63 68 66 61 62 64 62 56 50 44 41 42 42 41 43 48 54 55 48 47 48
7 8 10 13 16 21 27 32 34 38 44 50 57 66 70 68 68 71 67 56 50 49 46 40 34 31 27 26 26 27 30 31 31 32 34 37 40 42 40 36 40 46 49 52 56 59 60 61 64 67 72 77 77 75 76 76 72 74 80 77 66 67 73 73 73 74 73 75 80 72 57 56 64 67 62 57 51 45 44 44 44 48 55 64 62 49 44 49
4 4 5 7 9 15 22 27 30 34 40 49 60 69 70 68 71 73 67 58 52 49 46 39 34 30 28 27 25 26 30 32 32 31 34 38 40 43 43 39 39 44 47 50 55 59 60 63 65 63 66 77 84 87 85 81 80 81 80 73 67 75 85 86 83 79 76 77 75 65 54 56 67 74 70 61 55 50 46 46 49 51 64 86 86 61 45 48
3 3 3 4 5 8 15 21 26 31 38 48 59 64 65 68 71 70 65 58 51 47 44 37 33 31 29 27 25 26 30 33 33 32 34 38 40 43 45 42 39 42 47 50 53 57 60 65 66 61 61 69 76 81 78 75 77 78 77 79 86 96 97 90 83 77 73 74 69 60 54 57 65 74 77 68 59 55 51 49 50 53 73 104 109 79 53 49
2 3 3 3 4 5 8 14 21 29 36 45 52 56 62 68 69 66 63 58 51 46 43 36 33 33 30 27 24 26 29 33 35 34 35 38 40 43 46 45 42 42 45 49 51 54 57 61 61 59 60 62 64 64 60 57 57 58 70 90 103 105 97 88 82 76 72 70 65 58 55 57 59 64 74 76 66 60 56 52 50 53 72 99 106 88 65 53
2 3 3 3 4 4 5 9 16 26 35 41 46 51 58 62 62 60 59 57 51 46 42 37 35 35 31 26 24 26 30 34 37 36 37 40 42 44 47 46 44 43 44 47 49 52 54 55 55 55 55 54 53 52 49 47 48 50 62 80 90 92 88 84 82 79 80 80 74 67 62 61 61 64 76 84 75 65 59 54 51 53 63 80 87 82 72 65
2 3 3 3 3 4 4 6 13 25 34 38 41 46 53 57 58 58 57 55 50 44 41 37 38 40 33 26 25 26 30 36 40 40 40 42 44 46 48 47 46 45 43 44 46 49 51 51 51 51 51 49 46 46 45 48 52 56 63 72 80 84 81 80 80 79 81 81 74 65 61 67 74 78 86 93 88 79 68 60 59 60 64 72 80 84 81 80
3 3 3 3 3 4 4 5 11 22 30 33 37 42 47 51 52 51 52 51 46 42 40 36 39 42 34 26 25 25 29 35 40 43 44 44 45 47 49 49 49 48 45 41 42 46 48 49 49 48 49 48 46 45 46 48 49 54 63 74 87 97 98 98 97 91 88 84 75 65 63 74 85 87 88 94 97 89 76 68 68 71 72 74 86 100 98 87
3 3 3 3 3 4 4 5 9 16 23 29 34 38 42 45 45 45 47 49 47 45 40 36 39 42 37 29 25 25 28 33 38 42 44 46 47 49 51 50 50 52 50 45 45 46 47 47 46 46 47 45 43 44 46 48 53 62 70 74 83 93 98 98 96 95 96 93 87 79 74 77 81 79 77 85 95 94 81 70 69 70 73 79 94 109 104 91
3 3 3 3 3 4 4 5 7 11 17 25 31 34 38 41 41 43 46 48 47 45 41 38 40 41 38 34 29 27 29 33 37 41 44 46 47 48 52 51 50 52 53 51 49 48 46 45 43 43 47 48 50 56 61 65 71 80 87 90 92 93 93 89 83 82 88 89 87 83 77 77 80 78 73 76 89 97 89 75 68 65 67 79 97 109 106 100
4 3 3 3 4 4 5 5 6 8 13 20 27 32 35 36 37 41 45 46 46 44 41 41 43 42 39 37 36 34 33 35 38 42 47 48 46 45 50 54 54 54 54 54 54 52 50 49 46 43 45 47 48 54 65 71 73 76 83 92 99 98 94 87 77 71 72 73 72 71 67 71 82 87 86 84 88 96 94 83 73 65 62 69 85 99 102 100
4 3 3 3 4 4 4 4 5 7 12 20 27 33 34 34 37 42 45 45 44 43 42 43 46 45 40 39 40 39 37 38 42 48 51 52 50 49 49 54 57 58 58 57 56 56 55 55 53 50 52 56 57 63 73 75 71 69 68 71 76 80 80 76 69 64 61 58 58 58 55 57 68 80 88 91 90 93 98 96 84 72 65 63 67 77 82 84
4 4 4 4 4 4 4 4 5 8 14 22 28 31 31 34 39 43 46 46 44 44 45 47 51 48 42 42 45 44 42 41 44 51 57 59 59 57 55 57 58 59 62 63 62 62 61 62 63 62 66 75 82 90 97 93 84 75 66 59 58 60 62 60 57 56 54 52 51 49 49 51 59 74 88 94 93 95 102 105 99 86 75 68 65 68 71 73
4 4 4 4 4 4 4 5 7 10 17 23 27 29 33 38 42 44 45 47 47 47 47 51 56 53 45 44 49 52 50 47 48 56 64 68 68 65 66 68 67 65 64 63 64 67 69 74 80 82 83 83 81 84 86 82 76 71 67 65 64 63 61 56 51 49 50 51 46 41 42 49 60 79 95 99 98 97 103 109 107 98 86 77 74 73 74 77
4 4 4 4 4 5 5 6 10 15 21 25 28 33 39 43 45 46 48 51 54 52 49 51 56 54 47 45 49 55 57 55 56 61 66 69 71 73 77 80 81 82 79 74 73 75 76 80 87 91 92 89 83 79 75 68 63 63 63 63 64 67 69 67 63 60 60 59 50 39 39 45 59 81 99 106 105 103 106 111 107 100 92 86 83 81 84 92
4 5 5 5 5 5 7 10 16 22 27 31 34 38 43 46 48 50 53 56 58 59 58 57 56 52 48 46 48 53 59 62 64 64 63 65 69 76 85 91 95 98 96 93 91 90 88 89 89 86 85 83 79 75 71 66 63 62 62 63 67 73 76 76 72 66 64 62 53 43 39 40 53 76 95 108 111 105 101 102 100 97 95 91 86 86 95 104
5 5 5 6 6 7 11 17 22 28 34 39 41 44 48 51 53 55 56 56 56 59 65 65 60 52 47 46 48 51 56 63 67 66 64 65 68 72 80 90 99 104 104 102 100 98 97 97 95 90 84 79 74 70 66 60 58 61 67 76 86 88 86 85 79 69 62 58 52 48 43 39 49 71 91 106 111 107 100 96 97 100 99 95 89 87 95 105
5 5 6 7 9 11 16 23 30 36 41 45 48 51 54 58 61 63 65 63 62 65 70 69 62 55 50 49 51 53 54 58 64 67 67 68 68 69 74 82 90 98 103 105 104 101 97 94 90 85 79 73 69 66 62 57 57 67 80 91 98 100 98 96 90 80 69 59 55 55 53 50 56 70 88 104 107 107 107 103 103 104 102 100 97 93 95 100
7 7 9 11 14 19 24 31 38 43 47 51 55 58 60 63 67 70 72 74 74 75 75 73 69 65 64 63 66 68 64 57 56 60 66 69 69 70 73 75 78 82 87 91 94 94 90 84 79 73 68 63 60 60 62 63 66 76 88 98 102 104 105 103 98 93 84 70 64 64 63 63 65 67 82 102 108 106 107 107 105 103 102 102 102 100 99 99
Wind_Speed
46 49 54 60 65 69 72 73 74 73 72 71 71 71 71 72 73 73 73 71 70 68 67 66 66 66 66 66 67 67 67 67 67 66 69 75 73 70 71 73 75 76 78 79 80 81 81 81 80 78 77 76 75 73 71 69 67 64 62 63 66 68 69 67 65 64 63 62 61 61 60 59 57 53 50 52 55 53 51 51 50 49 48 50 50 47 45 43
45 46 48 52 57 63 68 71 73 74 73 72 71 71 71 71 72 73 74 74 73 71 69 68 66 65 65 65 65 66 66 66 66 65 71 75 70 68 70 72 72 73 73 75 78 79 80 81 80 79 78 78 77 75 73 71 68 65 64 66 70 71 69 66 64 62 61 61 60 60 59 58 56 52 51 53 54 53 52 51 51 50 49 49 48 45 43 42
44 45 46 47 50 55 61 66 70 72 73 73 72 72 71 71 72 72 73 74 74 73 72 70 69 67 65 65 64 64 65 65 64 66 73 72 66 68 70 71 72 71 71 72 74 75 77 79 79 79 79 79 78 76 75 72 69 67 66 70 73 71 68 66 63 62 60 60 59 59 58 57 55 51 51 53 53 53 53 53 53 51 49 48 47 45 43 42
41 43 45 46 47 49 54 60 64 68 72 73 73 72 72 72 71 71 72 73 73 74 74 73 71 69 68 66 64 64 64 63 63 67 72 68 65 68 70 71 71 70 70 70 71 72 73 75 76 78 79 79 79 78 76 74 72 70 70 73 75 71 69 67 64 63 61 59 59 59 58 57 55 52 51 54 54 54 55 54 52 50 48 47 46 45 44 43
40 41 43 45 47 48 49 53 58 63 67 71 73 73 73 73 72 72 72 72 72 72 73 73 73 72 70 69 66 65 64 62 62 65 68 65 65 68 69 70 70 70 70 69 70 70 71 71 72 74 76 78 78 78 77 76 75 72 73 76 75 72 70 68 66 64 61 60 59 59 59 58 56 54 54 55 56 57 56 54 51 49 47 47 47 46 45 44
40 41 41 43 45 48 49 50 53 58 62 67 70 73 74 74 74 73 72 72 72 71 72 72 73 72 71 71 69 67 66 63 63 64 65 64 64 66 68 68 69 70 69 69 70 70 70 69 69 70 72 74 75 76 77 77 76 74 76 79 76 73 71 69 67 64 62 60 60 60 60 59 58 57 56 57 58 58 57 53 51 49 48 48 47 46 45 44
42 41 41 42 43 46 49 50 51 53 57 62 66 70 74 75 75 74 74 73 72 72 71 71 71 71 71 71 70 69 67 66 66 66 66 64 63 64 66 67 68 68 68 69 70 70 70 68 67 68 69 70 71 73 75 76 76 75 78 80 78 75 73 71 68 65 63 61 61 61 61 61 60 59 58 58 59 59 57 54 51 50 49 49 47 46 46 45
44 43 43 43 43 44 46 50 52 53 54 57 61 66 70 74 76 76 75 74 74 73 72 71 70 70 70 69 69 68 67 69 70 69 69 66 63 63 63 65 65 66 67 68 69 70 69 67 67 67 67 68 68 70 71 72 72 73 78 81 79 77 75 73 69 66 64 63 62 62 63 63 62 61 60 60 60 59 57 55 53 52 51 50 49 48 48 47
46 45 45 44 44 44 45 47 51 53 54 55 58 61 65 70 73 76 76 76 76 74 73 72 70 70 69 68 67 64 66 73 73 71 71 67 63 62 61 62 62 63 65 66 67 68 67 67 68 68 68 68 67 67 67 66 67 69 74 78 78 78 76 74 71 69 66 64 63 64 65 65 64 62 62 61 60 59 57 55 55 55 54 52 51 50 49 47
48 47 47 46 46 45 45 46 48 52 55 56 57 59 62 65 69 73 76 77 77 76 75 73 71 70 68 67 64 61 68 75 72 71 71 68 65 63 62 61 61 61 62 64 64 65 66 68 70 69 68 66 65 65 64 62 63 65 69 74 75 75 75 74 72 70 68 66 65 66 67 67 65 64 64 63 61 60 58 57 57 56 56 55 53 51 50 48
50 49 49 48 48 47 47 47 48 50 53 56 58 58 60 62 65 69 72 76 77 77 76 74 73 69 68 67 61 62 71 74 71 69 69 68 67 66 65 64 63 61 61 61 61 63 66 68 68 67 67 66 65 65 62 61 61 63 65 68 69 70 71 70 70 70 68 67 66 67 69 70 68 66 66 64 62 61 60 59 58 57 57 57 55 52 51 50
52 51 50 49 49 49 49 48 49 49 51 55 58 59 60 61 63 66 69 72 75 77 77 76 74 70 69 64 60 67 73 72 70 67 65 66 67 68 68 66 66 64 62 61 60 62 64 65 65 64 65 66 67 65 62 62 62 62 63 64 64 64 65 65 66 67 67 67 67 69 72 73 72 69 67 65 64 63 62 61 59 58 58 59 57 54 53 52
53 52 51 51 51 50 50 50 50 50 51 53 56 59 60 61 62 64 66 68 71 75 77 77 75 73 69 62 64 73 73 70 69 65 63 63 63 66 68 67 68 67 65 63 62 62 63 63 61 61 63 65 65 65 64 64 63 61 61 61 61 60 59 59 61 61 62 64 65 67 72 75 74 72 68 67 66 65 64 62 61 60 60 60 58 56 54 53
54 54 53 52 52 52 51 51 51 52 52 53 55 58 60 61 61 62 65 67 69 71 74 76 76 74 68 65 71 76 72 69 66 62 61 60 61 65 67 68 68 68 68 67 66 64 63 61 59 59 60 61 63 64 64 64 62 61 60 59 59 57 56 56 56 56 57 59 60 65 71 75 75 73 70 68 67 67 66 64 63 63 62 61 60 58 56 55
55 54 54 54 54 53 53 53 53 53 53 53 55 57 59 61 62 62 63 65 67 68 70 73 75 75 69 69 77 76 71 68 63 62 61 60 62 65 68 69 69 69 69 70 69 67 64 61 57 56 57 59 61 61 61 62 62 61 60 60 60 58 57 57 55 54 55 55 56 61 67 71 72 71 70 68 68 68 67 66 65 65 63 62 61 60 58 57
55 55 55 54 55 54 54 54 53 54 54 55 55 56 59 60 62 62 62 63 65 67 69 69 72 74 72 75 79 76 72 68 66 66 62 60 63 66 69 68 68 69 69 69 70 68 66 61 57 56 56 57 57 57 59 59 59 60 61 61 62 60 60 59 56 55 55 54 55 56 60 64 66 67 66 65 66 67 67 66 66 66 65 63 63 62 60 59
56 55 55 55 55 55 54 54 54 54 55 55 56 56 58 59 61 62 61 62 63 66 68 68 69 71 74 78 80 77 75 72 70 67 62 62 65 67 69 68 67 68 67 69 69 68 66 62 58 56 55 54 53 54 54 53 54 58 60 61 62 62 62 60 58 57 56 54 54 54 56 59 62 62 61 60 61 62 63 63 65 67 66 64 64 63 62 60
57 56 56 55 55 55 54 54 54 54 55 55 56 56 57 58 60 61 61 61 61 63 66 68 68 69 74 78 79 79 78 74 71 67 63 64 66 68 68 67 67 66 67 67 66 66 65 63 61 59 55 52 50 49 48 50 54 57 59 60 61 62 62 61 61 60 57 55 54 54 56 58 59 60 58 55 54 56 57 58 62 65 65 64 64 63 62 61
58 57 57 56 55 55 54 53 53 54 54 55 55 55 56 57 58 59 59 59 60 62 64 67 68 68 72 77 80 80 78 74 71 67 63 63 66 66 66 66 64 64 65 64 63 63 63 63 63 59 55 52 49 48 48 52 56 57 58 58 58 59 60 61 62 60 58 57 55 55 57 58 59 59 56 52 49 50 51 51 57 61 61 61 61 61 61 61
58 57 57 56 55 55 54 53 53 53 53 54 54 55 55 55 57 57 58 59 60 61 62 65 67 68 72 76 79 80 78 76 72 68 65 64 66 66 65 63 61 61 62 61 60 61 61 61 59 57 55 55 54 52 52 54 56 56 55 55 55 56 57 59 60 58 58 57 56 56 58 59 60 59 56 52 47 46 46 47 53 55 55 58 58 58 59 59
58 58 57 56 55 55 54 52 52 52 52 52 52 53 53 54 55 55 56 58 59 59 60 62 65 68 72 74 77 79 78 76 73 71 68 67 68 66 64 61 59 58 58 60 60 59 58 55 53 55 58 59 58 56 55 56 55 54 53 52 52 52 55 57 56 55 55 56 56 58 59 59 60 59 57 53 48 45 43 45 50 50 52 55 55 56 57 57
58 58 56 56 55 55 54 52 51 51 51 50 50 51 51 53 54 54 55 56 58 58 58 60 63 69 73 72 74 76 76 75 74 72 70 70 68 65 63 61 58 57 59 61 60 57 52 48 50 55 58 60 60 58 57 57 56 54 51 49 49 50 53 54 52 52 52 53 55 56 58 59 59 58 57 53 49 45 43 44 47 47 50 53 53 54 54 53
57 57 56 55 54 54 54 52 50 50 49 48 48 49 50 52 52 53 54 56 57 56 56 59 62 68 72 70 71 73 74 75 75 74 73 71 68 65 64 61 59 59 60 60 58 54 48 46 51 55 57 59 59 59 59 59 57 53 50 48 49 51 52 53 51 51 50 52 53 55 57 58 57 57 56 53 50 46 44 45 45 45 48 51 50 50 51 50
57 57 56 55 54 54 53 51 50 48 47 46 47 49 49 51 52 53 53 55 56 54 54 59 61 67 71 68 68 70 73 76 76 75 74 72 69 67 64 62 61 60 59 58 57 54 49 50 55 56 57 58 58 59 60 59 56 53 51 49 51 53 53 53 52 50 49 50 52 54 54 54 54 54 52 51 50 48 46 45 44 44 45 46 46 46 49 50
56 56 56 55 54 54 53 51 48 46 45 45 47 48 49 51 53 53 52 52 54 53 54 58 60 65 68 63 63 67 71 74 75 75 74 72 70 68 65 63 61 59 57 58 58 54 52 54 57 56 56 57 57 58 59 58 56 55 53 51 53 56 56 56 52 49 47 47 50 51 50 50 50 50 50 49 49 48 46 44 43 43 43 43 43 44 47 50
56 56 55 54 54 54 52 49 47 45 44 44 47 48 49 51 52 51 50 51 53 53 54 57 59 62 62 60 62 66 69 71 74 75 74 73 72 69 67 64 60 58 58 59 58 55 54 56 57 55 55 56 56 56 57 57 57 56 54 54 56 58 59 58 54 50 48 48 50 50 49 49 48 48 48 48 46 45 44 43 43 42 42 42 41 42 45 49
57 56 55 54 53 53 51 48 46 44 43 45 47 48 50 51 50 49 50 51 52 53 54 56 57 58 59 60 62 64 66 70 74 76 75 75 74 71 68 63 60 58 59 60 57 54 54 55 55 54 54 54 53 52 53 54 53 53 55 57 58 59 62 61 56 53 51 52 52 49 48 48 45 45 45 44 42 40 40 42 42 41 41 41 41 42 45 47
57 56 55 54 53 52 50 47 45 43 43 45 47 49 50 49 48 49 50 51 52 53 54 54 55 56 56 58 59 61 66 71 73 75 77 76 75 73 69 64 61 60 60 58 54 52 54 54 54 54 54 51 49 49 52 52 49 53 58 59 59 61 63 62 59 56 56 56 52 47 47 47 45 44 42 40 38 36 37 40 40 39 39 40 41 42 42 41
57 56 55 54 53 52 49 46 44 43 43 45 47 49 49 48 48 49 50 51 51 51 52 53 53 54 55 56 59 63 66 69 71 74 77 77 76 74 70 66 64 63 61 57 53 54 54 53 55 56 53 50 50 53 54 51 49 55 60 58 59 63 64 63 60 59 58 56 51 47 47 47 46 45 41 36 34 34 36 38 38 38 38 39 39 39 38 37
57 56 55 54 52 51 48 45 43 43 43 46 47 48 47 47 48 48 49 50 50 49 51 52 53 54 54 57 60 63 66 68 70 72 75 76 76 74 71 69 67 64 61 58 55 54 54 55 56 54 51 52 54 56 55 51 52 59 60 58 60 62 64 63 60 59 58 54 50 47 46 47 47 45 39 34 32 33 34 36 37 37 38 38 38 38 38 38
56 55 55 53 51 50 48 45 43 43 44 46 46 46 46 46 47 47 48 49 48 48 49 50 52 53 54 56 59 62 64 67 68 70 73 75 75 73 71 69 66 64 61 58 55 55 55 55 52 49 49 52 53 53 52 52 56 60 59 58 59 60 62 62 58 57 53 49 48 48 46 46 46 44 39 33 31 30 31 34 35 36 37 38 37 38 38 38
55 54 53 52 50 50 47 45 45 45 46 46 45 45 45 46 47 47 47 49 48 47 48 49 51 52 52 54 57 60 63 65 66 68 71 74 74 73 71 68 65 63 59 57 55 55 55 52 50 50 50 50 50 50 50 50 53 56 57 57 57 58 60 58 55 51 47 45 48 49 48 46 46 45 40 35 31 30 32 34 35 35 36 36 37 38 38 37
52 51 51 50 50 50 48 47 47 47 47 46 45 44 44 46 46 46 47 49 47 46 47 47 48 48 50 52 55 59 62 64 65 66 69 73 74 74 73 70 68 65 62 60 59 57 55 54 52 51 49 48 48 48 47 47 49 52 54 53 53 55 56 54 51 47 44 45 48 50 50 47 46 46 43 39 34 31 33 35 35 35 34 35 37 38 37 36
48 48 48 50 50 49 49 49 49 49 48 47 45 44 45 47 47 47 48 48 46 43 44 44 44 46 48 50 54 58 61 64 65 66 68 72 74 74 74 72 70 67 66 64 62 60 58 55 52 50 49 48 48 48 48 50 52 53 55 55 53 54 54 52 51 49 46 47 50 53 52 48 46 45 44 42 38 33 34 36 35 34 34 36 38 40 38 37
45 44 46 48 49 48 49 52 52 50 49 48 46 46 48 48 47 47 47 47 44 41 41 42 43 45 46 49 52 57 61 63 65 65 67 70 73 74 74 73 71 69 67 65 63 61 60 57 55 54 53 53 53 52 53 55 54 54 57 57 53 51 53 54 55 54 51 52 55 55 52 48 46 45 45 45 41 36 36 36 35 35 35 37 40 42 40 37
39 39 41 44 44 45 50 53 52 51 50 49 49 50 51 49 48 48 48 47 44 41 40 42 43 44 46 48 51 55 59 62 64 65 66 69 73 75 75 74 72 70 68 66 64 63 61 60 60 59 58 57 57 57 58 57 55 55 57 54 49 51 57 60 59 57 55 56 57 55 51 47 46 46 48 47 43 39 37 36 36 37 37 38 41 43 41 38
33 34 35 37 38 43 49 52 52 52 51 51 53 54 52 50 49 49 48 46 43 41 41 42 43 44 45 48 51 54 58 60 62 63 65 69 73 74 75 74 73 72 70 68 67 66 64 64 64 62 60 60 60 61 61 59 58 58 55 51 54 60 63 62 61 58 56 57 57 54 50 48 47 47 47 46 44 41 40 39 39 39 39 40 42 44 42 38
30 30 30 32 36 42 47 50 51 52 53 54 56 54 52 52 52 50 48 45 42 40 40 42 43 43 45 47 50 53 55 58 60 62 64 67 71 73 75 75 74 73 72 71 69 68 67 68 67 65 63 63 63 63 62 60 59 57 55 56 62 66 64 62 61 59 56 56 56 54 51 49 48 46 46 47 47 45 44 43 42 41 42 43 44 44 43 40
27 26 27 30 35 39 43 47 50 52 55 57 56 55 54 54 52 50 47 44 41 40 40 41 41 43 45 46 49 51 53 55 58 60 62 65 68 72 74 75 75 75 74 73 71 70 70 70 69 67 67 66 65 64 62 60 59 58 59 62 65 65 63 62 62 60 58 58 58 56 53 50 48 47 47 50 50 47 46 45 44 43 43 44 45 44 43 41
24 23 25 28 31 34 39 44 49 54 58 59 57 56 55 54 52 50 47 44 42 41 41 41 41 42 45 46 48 50 52 54 56 58 60 63 67 70 73 74 74 75 75 75 74 72 72 71 70 68 68 67 65 63 62 62 61 61 61 62 63 64 63 63 64 62 61 61 61 59 55 52 51 51 51 52 51 49 49 48 47 45 43 44 45 45 44 42
21 21 22 25 28 31 35 41 49 56 60 59 56 56 55 55 53 50 46 43 41 40 41 41 41 42 44 47 48 49 51 54 56 57 59 61 65 68 71 73 74 75 76 75 74 72 72 72 71 69 68 68 66 64 63 63 62 61 62 62 63 64 64 65 65 64 62 63 63 61 57 55 55 55 54 54 53 53 52 51 50 47 45 44 45 45 45 44
18 18 20 23 26 30 35 42 50 57 58 57 56 56 56 55 52 47 44 42 40 40 40 40 41 42 43 46 47 48 49 52 55 56 58 61 63 66 69 72 73 74 74 73 72 72 73 72 71 70 69 68 66 64 63 63 62 62 63 64 65 66 67 68 67 65 64 66 66 64 61 59 58 57 56 56 56 56 55 53 52 50 47 46 45 46 46 44
15 16 19 22 25 29 34 41 48 53 54 55 56 55 55 53 50 46 44 42 41 41 40 40 40 41 42 45 46 47 49 52 54 56 57 60 62 64 67 69 71 72 72 72 72 72 72 72 71 69 68 67 65 64 63 63 63 64 64 65 66 67 68 69 68 67 67 69 70 69 66 62 59 58 57 57 57 58 57 55 54 52 50 48 48 48 47 44
13 15 18 22 26 30 35 41 46 49 51 52 53 52 52 50 47 44 42 42 41 41 39 38 38 39 42 44 45 47 49 51 52 54 56 58 60 62 63 65 66 68 69 70 70 70 70 70 69 69 68 68 67 66 65 66 67 67 66 66 67 68 69 70 70 70 71 72 73 72 70 65 62 61 60 59 59 59 58 56 55 54 52 51 51 51 48 46
11 14 17 21 26 30 35 38 41 43 46 48 49 50 49 47 44 42 42 41 41 40 38 38 38 39 41 44 45 47 49 50 52 53 54 56 57 58 60 62 63 65 65 66 66 67 67 67 67 67 65 65 65 63 65 67 68 68 67 67 67 68 70 70 70 71 72 72 72 72 71 67 63 62 62 61 60 60 59 58 57 55 54 53 52 51 49 48
8 11 15 19 23 26 29 30 33 37 42 46 47 47 45 43 42 41 41 40 39 38 37 36 36 38 40 42 44 46 48 49 51 52 52 54 54 55 56 58 60 61 62 63 63 63 63 63 63 63 62 62 62 62 63 65 65 65 64 64 64 66 68 68 68 68 69 70 71 71 70 67 64 62 62 62 61 60 60 59 59 58 55 53 52 51 49 48
5 9 12 16 19 21 24 26 30 35 40 43 44 42 41 41 40 40 39 38 37 37 37 37 37 38 40 41 43 44 46 48 49 51 52 53 53 54 53 54 55 57 59 61 61 61 60 59 59 59 60 62 63 64 65 66 64 63 61 60 60 61 63 63 63 63 64 66 68 67 66 66 64 62 63 62 61 61 61 62 61 59 56 53 51 50 49 48
4 7 10 13 16 19 23 27 31 35 38 39 39 39 39 39 38 37 36 36 36 36 37 37 37 38 39 40 41 43 45 46 48 51 53 54 53 52 51 52 52 54 55 56 57 58 59 59 59 60 60 61 62 63 64 64 62 60 59 59 58 58 58 57 57 59 60 62 64 62 62 63 64 64 64 63 63 63 63 64 63 60 57 54 52 51 50 49
7 9 12 14 17 21 26 30 33 35 37 37 37 37 37 36 36 36 36 36 37 36 35 35 36 37 38 39 40 41 43 46 48 51 53 53 52 52 51 51 51 52 53 54 55 56 57 58 59 60 60 61 61 61 61 60 57 55 55 55 54 54 53 53 54 56 58 60 61 60 59 60 62 63 64 64 64 64 64 64 62 59 58 56 54 53 52 50
11 14 17 19 22 26 30 33 34 36 37 37 36 35 35 34 34 35 35 35 35 34 33 34 34 35 36 37 38 41 43 46 48 50 51 51 52 52 51 51 51 51 52 52 53 54 55 56 57 57 58 58 58 58 58 56 53 51 51 50 49 49 48 49 50 52 54 56 57 57 56 57 58 61 63 64 65 64 63 62 61 60 60 57 56 55 55 54
14 17 21 24 26 29 33 35 36 36 36 36 35 35 35 35 34 33 32 32 31 31 32 33 33 34 34 35 37 39 42 46 48 50 50 50 51 50 50 51 51 51 51 51 52 52 53 54 54 55 56 55 55 55 55 53 50 49 48 47 46 45 44 44 45 47 50 51 52 53 54 54 57 60 63 63 64 64 63 62 62 62 61 59 58 57 57 57
18 20 24 26 29 31 34 35 36 36 36 36 36 36 35 34 34 33 32 31 31 31 31 31 32 33 33 34 35 38 41 45 47 48 49 49 50 50 50 51 52 52 52 52 52 52 52 53 53 54 54 54 53 52 52 51 49 48 46 45 45 44 43 42 41 42 45 46 47 49 51 53 56 59 61 62 63 63 62 59 60 62 62 62 61 59 59 59
Wind_Direction
272 267 261 257 253 251 250 249 248 247 247 247 247 247 247 247 246 245 245 244 244 244 244 244 244 245 245 245 245 245 244 244 243 244 245 245 244 244 245 245 245 245 244 245 244 244 244 244 243 243 244 244 245 245 246 246 246 246 246 247 248 247 247 248 248 249 251 252 253 254 256 256 257 257 258 257 259 260 260 260 259 258 257 258 260 261 262 263
276 272 267 261 256 252 250 249 248 248 247 247 246 246 246 246 246 246 245 245 244 244 244 244 244 244 244 244 245 245 244 244 243 243 244 244 243 244 244 245 245 245 244 244 245 244 244 244 244 244 244 244 244 245 245 245 246 246 246 247 247 247 247 248 248 249 250 251 252 254 255 256 256 257 257 257 258 259 259 258 258 257 256 257 260 261 263 263
281 276 272 267 261 256 252 249 248 247 247 246 246 246 246 246 246 246 246 245 245 244 244 243 243 243 243 244 244 244 244 244 243 243 244 244 242 243 243 244 244 245 244 244 244 244 244 244 244 244 244 244 244 244 245 245 245 245 246 247 247 247 248 248 249 249 250 251 252 253 254 255 256 256 257 258 258 258 258 257 256 257 257 259 261 261 261 261
285 280 276 271 266 261 256 251 249 247 246 246 245 245 245 245 244 245 245 245 245 244 244 243 243 243 243 243 243 243 243 243 243 243 244 244 242 242 242 243 243 244 244 244 244 244 244 244 244 244 244 244 244 244 244 244 244 244 245 246 247 247 247 248 248 249 249 251 252 253 253 254 254 254 255 257 256 255 255 255 255 257 258 259 259 259 258 258
289 284 279 274 270 266 261 256 252 249 247 245 245 244 244 244 244 243 243 244 244 244 243 243 243 242 242 242 242 242 243 242 242 243 245 244 242 242 242 242 242 242 243 243 244 244 244 244 244 244 244 244 244 244 244 244 243 243 244 246 246 247 247 248 248 249 249 250 251 253 253 253 253 252 251 253 253 253 253 254 255 256 257 257 258 258 258 258
293 288 282 277 272 268 265 261 256 252 249 247 245 244 243 243 243 242 242 242 242 242 243 243 242 242 242 242 241 242 242 242 242 243 244 243 241 242 242 242 242 241 241 242 242 243 243 243 244 244 244 244 244 244 244 243 243 243 244 246 246 246 246 247 247 248 249 250 251 252 254 254 253 252 251 251 252 253 253 254 254 255 256 256 257 258 259 259
295 291 287 281 275 270 266 263 260 256 252 249 247 245 244 243 242 242 242 241 241 241 241 241 242 241 241 241 241 241 242 242 241 241 242 241 240 241 242 242 241 241 241 241 241 242 242 242 243 244 244 244 244 243 243 243 243 243 244 245 246 246 246 246 247 248 249 249 250 252 253 254 253 253 252 252 253 254 256 256 256 256 256 256 257 258 259 259
295 293 290 285 280 274 268 263 261 259 256 252 249 247 245 243 242 241 241 241 241 241 240 240 240 240 240 240 240 241 242 241 239 239 240 239 239 240 241 242 242 241 241 240 241 241 242 242 242 243 243 243 242 243 243 243 244 243 244 246 246 245 246 246 246 247 247 248 250 251 252 253 253 253 253 252 253 254 256 257 257 256 256 255 256 256 257 258
295 293 291 287 282 277 272 267 262 259 257 255 252 249 247 245 243 242 241 240 240 240 240 239 239 239 239 239 239 239 241 240 238 238 240 240 239 240 242 243 243 242 242 241 241 241 241 241 241 240 241 241 242 243 244 244 244 244 244 246 246 246 246 246 245 246 246 247 249 250 251 252 252 252 253 253 254 254 255 256 256 257 256 254 254 254 256 257
294 292 291 288 285 280 275 271 266 260 257 255 254 252 249 246 245 243 242 240 240 239 239 239 238 238 238 238 237 237 240 239 238 238 240 240 240 239 240 242 243 243 242 242 241 241 240 239 239 239 240 241 242 243 243 243 243 243 244 245 246 246 246 246 246 246 246 246 248 250 251 252 251 251 252 252 253 254 254 254 255 256 256 255 254 255 256 256
293 292 290 288 286 282 277 273 269 265 260 256 254 253 251 249 246 244 243 241 240 239 238 238 237 236 237 237 235 236 239 238 237 237 239 239 239 238 238 239 240 241 242 242 241 241 240 239 239 239 240 241 241 241 242 241 241 241 243 245 246 246 247 247 247 246 246 246 247 249 251 251 250 249 250 251 252 253 253 253 254 255 257 257 256 256 256 256
292 291 290 288 285 283 279 275 271 267 264 259 255 252 251 250 248 246 244 242 241 240 238 237 236 235 235 235 234 236 238 237 236 236 237 238 239 239 237 237 238 238 239 240 240 240 240 240 239 239 239 239 239 240 240 240 240 241 243 245 246 247 247 247 247 246 245 245 245 247 250 250 250 249 249 250 251 252 252 253 253 254 255 257 257 256 256 257
292 291 290 288 285 282 279 275 272 268 265 262 258 253 251 249 248 247 245 243 242 240 239 237 236 234 233 232 235 237 236 235 235 234 235 236 238 239 238 237 238 237 237 238 238 239 240 239 239 238 238 239 239 239 239 239 240 241 243 246 247 247 248 247 246 245 244 243 243 245 248 249 249 248 248 248 249 251 251 252 253 253 254 255 256 257 257 257
291 291 290 288 285 282 279 275 272 269 266 263 260 256 252 250 248 247 246 244 243 241 239 238 236 234 231 231 236 237 234 233 233 233 233 234 236 237 237 237 237 237 237 237 237 238 238 238 238 238 238 239 239 239 239 239 240 241 242 244 246 246 246 246 245 244 243 242 241 242 245 247 247 247 246 247 248 250 251 251 252 252 253 254 256 257 257 257
291 291 290 288 285 282 279 275 272 269 266 263 260 257 254 251 248 247 246 245 243 241 240 238 236 234 231 231 236 235 233 232 231 231 231 231 234 235 235 235 235 235 235 236 237 238 239 238 238 238 238 239 239 239 239 239 240 240 240 242 243 243 243 243 243 242 241 240 239 240 244 246 248 247 247 246 247 249 250 251 252 252 253 254 255 255 256 256
291 291 289 287 285 282 278 275 271 268 266 263 260 257 254 251 249 248 247 245 244 242 240 238 237 234 231 232 234 234 232 230 228 228 228 229 232 233 234 233 234 234 234 236 236 237 239 239 239 238 238 239 239 239 239 239 240 240 240 241 242 242 242 242 241 241 240 239 239 240 243 247 248 248 247 247 247 248 249 250 251 252 252 252 253 254 255 255
291 290 289 287 285 282 278 274 271 268 265 263 260 257 254 252 250 248 247 246 244 242 240 238 236 234 231 231 233 232 231 228 226 226 226 228 230 233 234 233 233 234 235 236 236 237 238 239 240 240 240 240 240 240 241 241 241 240 239 239 240 240 240 241 241 240 240 240 240 240 243 246 247 248 247 246 246 247 248 249 251 252 252 252 252 253 254 255
290 289 288 287 284 281 277 274 271 267 265 263 260 257 254 252 250 248 247 246 245 243 240 237 235 234 232 231 231 232 231 228 227 226 225 228 231 232 234 233 233 234 235 236 236 237 237 237 238 238 240 241 242 243 242 240 239 238 237 237 238 239 240 240 240 240 240 241 240 241 242 244 247 248 246 245 246 247 248 249 251 251 252 252 252 253 254 255
289 288 287 286 284 281 277 274 271 267 264 262 259 256 253 251 250 249 248 247 246 244 240 236 234 233 233 231 231 231 230 229 227 225 225 228 232 234 235 235 234 235 236 236 236 237 237 236 236 237 239 241 242 242 239 238 238 237 237 237 238 239 240 241 241 240 241 241 241 241 243 244 246 247 246 245 245 247 248 249 250 251 252 253 253 253 253 254
288 287 287 286 284 281 277 274 271 267 264 261 258 255 253 251 250 249 248 248 246 244 241 236 233 232 232 232 230 229 229 228 226 224 224 227 231 233 235 236 235 235 237 237 237 237 237 236 236 237 238 238 238 237 237 238 238 238 238 238 239 240 241 241 241 241 241 241 240 240 242 243 245 247 246 245 243 245 247 248 250 251 252 253 253 253 253 253
287 286 286 285 283 280 277 274 271 267 263 260 257 255 253 251 250 249 248 248 247 244 241 236 232 231 232 231 231 229 228 227 226 223 222 224 228 230 232 234 234 234 235 236 236 236 236 236 236 237 236 236 236 236 236 237 238 239 239 239 239 240 241 242 241 240 241 241 240 240 241 242 244 246 246 245 244 243 244 246 249 251 251 252 253 253 253 252
285 285 285 284 282 280 277 274 271 266 262 259 256 254 252 251 250 249 248 249 247 244 241 236 231 231 231 230 230 229 227 227 226 224 223 224 226 227 229 232 233 232 231 232 234 235 235 235 236 235 235 235 235 236 236 238 239 239 240 240 241 240 241 242 241 240 239 240 240 240 240 241 243 245 246 246 245 242 241 243 247 249 250 251 252 252 254 254
284 284 284 283 281 279 277 274 270 265 261 258 255 253 251 250 249 248 247 247 246 242 239 236 230 230 231 229 229 229 227 225 225 224 223 223 225 226 227 228 230 230 230 230 232 233 232 231 233 234 234 234 234 235 235 237 239 240 241 241 242 241 242 242 240 238 237 239 240 239 240 241 242 245 246 246 244 242 240 241 244 247 249 251 253 254 256 257
283 283 283 282 280 278 276 273 269 265 261 257 254 251 249 248 248 246 245 245 244 240 237 235 230 229 230 228 227 228 227 225 224 223 222 222 223 225 225 226 227 229 229 228 228 228 226 226 229 229 230 231 232 233 234 236 238 239 239 239 241 241 241 241 239 238 238 240 242 242 241 242 243 244 245 245 244 242 240 240 242 245 249 251 254 255 256 258
283 282 282 280 278 276 274 272 269 264 259 255 251 249 248 247 246 246 244 243 243 239 235 234 231 229 230 228 227 228 227 225 224 223 222 222 222 223 224 225 227 228 228 227 226 225 224 225 228 228 229 229 230 231 233 234 235 236 236 237 239 241 241 240 239 238 238 240 243 244 243 242 242 243 243 243 242 242 241 240 241 243 246 249 250 252 253 254
282 281 280 278 277 275 273 271 267 262 257 253 249 248 246 245 245 245 243 241 240 237 234 234 232 230 229 227 226 226 227 226 224 222 221 221 221 222 222 223 225 226 227 227 225 223 223 225 228 228 229 230 230 231 232 233 233 235 235 236 238 240 241 240 239 238 237 238 241 243 243 241 240 241 242 242 242 242 241 240 239 240 243 245 246 248 248 249
281 280 278 276 275 273 272 269 265 260 255 250 247 246 245 244 243 242 240 238 236 235 234 233 232 230 228 226 226 225 225 225 223 221 220 220 220 221 221 221 223 225 226 227 225 223 223 225 228 228 229 230 231 232 234 234 234 235 235 235 237 240 241 241 238 237 236 237 238 241 243 243 241 241 242 242 241 241 240 240 239 239 241 243 244 244 245 246
280 278 276 275 273 271 269 267 262 257 252 248 246 244 243 243 242 240 238 236 234 233 233 233 232 231 228 227 226 225 225 225 223 220 219 218 218 219 219 219 221 223 225 226 224 224 224 225 227 229 229 230 231 232 233 232 232 233 234 234 235 238 240 240 238 237 236 237 238 240 244 245 244 242 241 241 240 238 238 240 240 240 240 241 243 243 245 247
278 277 275 273 271 269 267 263 259 253 249 246 244 242 242 240 239 238 236 235 234 233 234 234 233 232 229 226 225 223 224 225 223 221 219 218 217 217 216 216 218 220 222 222 221 221 223 223 224 226 226 226 228 229 230 229 228 231 233 233 234 237 239 240 239 238 238 238 239 240 244 247 246 244 242 240 239 237 237 238 239 239 239 240 241 242 243 244
277 275 273 271 268 266 263 259 254 250 246 244 242 241 239 238 237 236 236 235 234 233 234 234 234 232 229 227 224 223 222 223 222 220 219 218 218 217 216 215 216 218 219 219 218 219 220 221 222 223 222 223 224 226 228 226 226 230 232 232 233 236 239 241 240 239 239 239 240 240 243 247 248 247 244 239 236 235 236 238 238 238 238 239 240 241 241 242
277 274 271 268 265 262 258 254 249 245 243 241 240 239 237 236 235 235 235 235 234 233 234 234 234 232 229 227 225 223 222 222 221 219 218 217 217 217 216 216 217 218 218 218 217 218 219 219 221 221 221 222 224 225 227 226 227 230 232 233 234 236 240 242 242 241 240 240 241 240 240 245 248 249 245 239 233 232 234 237 237 238 238 238 239 240 241 243
277 273 269 265 261 257 254 249 244 241 239 239 238 236 234 233 233 233 234 235 234 233 234 234 233 232 228 226 224 222 221 221 221 219 217 216 216 216 216 216 217 218 219 219 219 219 219 219 220 220 221 222 224 226 227 228 229 233 235 235 236 238 242 245 246 246 244 241 241 241 239 240 245 248 245 239 232 227 229 232 234 236 238 240 240 240 241 243
276 271 267 262 257 253 249 244 240 238 237 236 235 233 232 231 231 231 233 235 234 233 234 234 233 232 229 225 223 221 220 219 219 218 217 216 215 214 214 214 215 216 216 218 219 219 220 220 219 221 222 223 225 227 229 231 233 235 239 240 240 242 244 248 250 250 247 243 241 240 238 235 239 244 245 241 235 229 229 232 232 233 237 240 241 242 242 242
276 269 263 258 253 249 245 241 238 235 234 233 231 230 229 229 229 230 232 234 233 233 234 234 232 231 228 224 221 219 218 217 217 217 216 215 214 214 214 213 214 215 215 216 217 217 219 220 220 222 225 226 227 228 229 230 231 233 237 239 239 241 245 248 249 249 247 244 242 240 238 234 234 240 244 243 238 231 230 233 234 234 236 238 241 242 241 242
273 266 260 254 249 245 241 239 236 233 231 229 227 227 227 227 228 229 232 233 233 231 232 231 229 227 225 222 220 218 217 215 215 215 214 214 213 213 214 213 213 215 215 216 217 218 218 219 220 220 222 224 226 227 228 229 230 231 234 237 239 242 244 245 244 244 242 241 241 240 238 234 232 234 239 240 238 233 230 232 234 235 236 238 241 242 240 240
272 264 257 251 247 241 237 236 234 231 228 225 224 225 225 226 227 228 231 232 231 228 228 228 226 224 221 218 217 216 216 215 214 213 213 213 213 212 213 213 213 215 215 215 217 218 219 220 221 221 220 222 224 225 227 228 230 232 234 239 242 242 241 241 241 241 240 240 241 241 239 236 232 230 233 237 236 234 232 231 231 233 235 237 240 243 242 239
271 263 256 250 243 236 232 232 230 228 225 223 223 224 224 225 226 227 229 230 229 226 225 225 224 222 219 216 214 214 214 214 214 213 213 212 212 212 212 213 213 214 215 216 216 218 219 221 222 222 222 223 225 226 228 228 229 231 234 237 238 238 238 239 241 241 241 241 242 243 242 238 234 231 232 235 236 234 233 231 229 229 230 232 237 242 244 242
271 262 254 246 237 231 228 226 225 224 222 221 221 222 223 224 225 226 227 228 228 225 224 224 222 220 217 214 213 212 213 213 212 213 213 213 213 212 212 213 213 214 215 216 217 218 219 221 222 223 223 224 226 228 230 231 231 232 232 232 233 236 238 241 243 243 244 245 246 245 243 240 237 233 232 234 235 233 232 231 228 227 227 230 235 241 244 245
271 261 250 240 234 229 225 221 220 219 218 219 220 220 221 222 224 224 225 226 225 222 221 221 220 219 216 213 211 211 211 212 213 213 213 213 214 214 213 213 213 214 215 216 217 218 220 222 223 224 225 226 227 229 232 234 235 235 233 233 234 237 239 241 243 244 244 244 245 245 243 241 239 235 231 232 234 234 234 233 231 229 228 232 236 240 244 245
269 257 246 238 232 227 223 218 214 213 216 217 217 217 219 220 222 222 222 222 221 219 218 217 216 216 215 212 210 209 209 210 211 212 213 214 214 214 214 214 214 215 216 217 218 219 221 223 224 225 227 229 229 231 233 234 235 235 236 237 239 241 243 244 245 245 244 244 244 244 242 239 237 234 230 230 232 233 234 235 234 232 230 232 236 239 241 241
265 253 242 235 228 222 218 214 209 210 213 214 214 215 216 218 220 219 219 219 219 218 217 214 212 213 213 211 210 209 208 209 210 211 212 214 215 215 215 215 215 216 217 218 219 220 222 224 225 226 228 230 231 232 233 235 236 237 237 238 239 241 243 244 245 247 247 247 248 247 242 237 234 232 230 229 230 230 231 233 234 233 231 232 235 237 237 237
260 247 235 228 221 215 211 209 208 209 210 211 212 213 214 217 218 218 216 216 216 216 216 214 211 210 211 211 210 208 208 209 210 210 211 213 214 215 216 216 215 216 218 219 220 221 223 225 226 227 229 232 233 233 235 236 236 237 238 239 239 239 240 242 243 245 246 247 248 247 243 238 234 232 230 229 229 229 229 230 233 234 233 232 233 235 238 238
249 235 226 219 214 210 208 208 209 210 209 208 209 211 212 214 215 214 213 213 213 213 213 212 211 209 208 210 210 209 208 209 210 211 212 213 214 214 215 216 217 217 219 220 221 222 224 226 227 228 230 232 233 233 234 235 235 235 236 238 240 241 243 244 244 244 244 244 244 244 242 238 234 233 231 229 229 230 230 229 231 232 233 232 233 235 238 240
237 224 218 212 206 204 205 206 208 208 207 206 207 209 210 212 213 211 210 210 211 211 210 209 209 208 207 208 208 208 208 209 210 211 212 214 215 215 215 216 217 218 219 220 222 223 225 227 228 229 231 232 233 233 234 234 234 234 235 236 238 241 243 244 245 245 244 243 243 243 241 237 232 231 230 229 229 230 230 231 231 231 232 232 233 235 237 240
232 221 214 209 205 203 204 206 207 206 205 204 205 206 208 210 209 208 208 209 209 209 208 207 206 206 207 208 208 208 209 208 209 210 212 215 216 217 216 216 217 218 220 221 223 224 226 227 229 230 232 234 235 236 236 237 238 238 237 238 239 240 242 244 245 245 245 245 244 243 243 239 233 230 229 228 228 229 230 232 232 232 232 233 234 236 238 240
230 220 213 209 207 205 204 204 203 202 200 201 202 204 206 206 205 205 206 207 208 207 206 206 205 205 206 207 209 209 210 209 208 209 211 214 216 217 217 217 218 218 219 220 222 224 226 227 230 231 231 232 233 233 235 237 239 241 242 243 244 244 244 245 245 245 245 245 244 243 242 240 236 231 229 228 228 229 230 231 233 233 233 233 235 238 240 241
215 209 205 202 201 200 197 193 194 196 197 198 200 201 202 202 202 202 203 204 205 205 204 203 203 204 205 205 207 209 209 209 209 209 210 213 215 216 217 217 218 219 220 221 221 222 224 225 227 229 230 231 232 232 233 235 237 239 241 242 243 244 245 245 245 245 244 244 244 243 241 239 235 231 229 228 228 229 230 231 232 233 233 234 236 239 241 243
176 184 185 187 186 185 181 180 184 189 193 196 197 197 197 198 199 200 200 200 202 205 206 204 203 204 204 204 205 207 209 209 209 209 210 211 213 215 216 217 217 218 220 221 222 222 223 223 224 225 227 230 232 233 235 237 238 239 240 240 240 241 242 243 243 243 243 243 243 242 240 236 233 229 228 227 228 228 229 231 232 233 233 234 236 238 241 243
144 153 159 164 167 168 169 172 177 183 187 191 193 193 194 195 196 196 197 198 199 202 205 206 206 205 204 204 204 205 207 209 210 211 211 211 212 213 214 215 217 218 218 219 220 221 222 223 225 226 228 230 232 233 235 237 238 239 239 240 240 240 241 241 242 242 241 241 241 240 238 235 231 228 226 226 228 229 230 232 233 234 234 234 235 237 240 241
135 143 148 153 158 161 162 167 173 177 181 185 187 188 189 191 193 194 197 199 199 199 202 206 207 206 205 204 204 204 205 207 210 212 212 213 213 213 213 214 216 217 219 220 221 222 223 224 226 227 229 231 233 235 236 236 236 236 237 236 237 239 241 243 244 244 242 241 241 240 238 235 231 228 226 225 227 229 231 233 234 235 236 235 235 237 239 240
132 141 145 149 154 158 159 163 169 173 176 178 181 183 185 187 188 191 194 198 199 200 202 205 206 206 205 205 205 204 205 206 210 212 212 213 214 215 215 216 217 218 219 220 222 223 224 226 227 229 230 231 232 234 236 237 235 233 233 232 234 237 240 242 244 245 244 242 240 239 238 235 232 229 226 225 226 228 231 233 234 236 237 237 237 237 239 240
131 138 143 147 153 156 157 161 166 169 171 174 177 181 183 184 185 188 191 194 197 200 203 205 206 206 205 205 204 205 206 207 209 211 212 213 214 215 215 217 218 219 219 220 221 223 225 227 228 230 231 231 232 233 234 234 233 231 230 230 232 234 236 238 240 241 241 240 238 237 235 233 231 229 226 224 225 227 229 233 236 239 239 239 239 239 240 242